Regional Weather Roundup
Issued by NWS

Home | Current Version | Previous Version | Graphics & Text | Print | Product List | Glossary On
Versions: 1 2 3 4 5 6 7 8 9 10 11 12 13 14 15 16 17 18 19 20 21 22 23 24 25 26 27
000
ASUS45 KSLC 242010
RWRUT

UTAH REGIONAL WEATHER ROUNDUP
NATIONAL WEATHER SERVICE SALT LAKE CITY UT
200 PM MDT FRI MAR 24 2017

UTZ001>011-023>025-242100-

NORTHERN UTAH

CITY           SKY/WX    TMP DP  RH WIND       PRES   REMARKS
BRIGHAM CITY     N/A     52  33  46 S6        30.19F
HILL AFB       SUNNY     52  30  43 S13G18    30.19F
LOGAN          SUNNY     54  32  43 S12       30.17F
OGDEN          SUNNY     52  29  41 S15       30.18F
SALT LAKE CITY MOSUNNY   54  33  45 S12       30.18F
WENDOVER       MOSUNNY   58  28  32 SE15      30.14F
HEBER CITY     SUNNY     55  30  38 W10       30.17F

$$

UTZ011>015-024>027-242100-

CENTRAL/NORTHEAST UTAH

CITY           SKY/WX    TMP DP  RH WIND       PRES   REMARKS
PROVO AIRPORT  SUNNY     51  37  58 VRB5      30.22F
MOAB/CANYONLAN SUNNY     60  26  27 NW3       30.14F
DELTA          SUNNY     48  34  57 SE6       30.22F
PRICE          SUNNY     53  31  42 MISG      30.21S
ROOSEVELT      SUNNY     55  30  38 CALM      30.22F
VERNAL         PTSUNNY   54  30  40 VRB5      30.19F

$$

UTZ013>016-019>022-027-242100-

SOUTHERN UTAH

CITY           SKY/WX    TMP DP  RH WIND       PRES   REMARKS
BRYCE CANYON   SUNNY     49  10  20 CALM      30.27F
CEDAR CITY     SUNNY     53  16  23 VRB5      30.22F
MILFORD        SUNNY    N/A N/A N/A S10       30.20F
ST GEORGE      CLEAR     61  30  31 W3        30.22F
HANKSVILLE     SUNNY     61  28  29 N6        30.21F
BLANDING       SUNNY     59  25  26 NW7       30.22F

$$

REGIONAL REPORTS     COLORADO/ARIZONA

CITY           SKY/WX    TMP DP  RH WIND       PRES   REMARKS
CRAIG, CO      PTSUNNY   54  24  31 VRB6      30.18F
GRAND JUNCTION MOSUNNY   60  28  29 CALM      30.16F
RIFLE, CO      PTSUNNY   56  27  32 W6        30.16F
MONTROSE, CO   CLOUDY    54  27  35 W9G17     30.19S
CORTEZ, CO     SUNNY     56  30  37 N17G26    30.15S
COLORADO CITY    N/A     61  30  31 S6        30.27F
PAGE, AZ       SUNNY     61  32  33 NE8       30.21F
GRAND CANYON   SUNNY     53  27  36 MISG      30.28F
KINGMAN, AZ    SUNNY     66  13  12 CALM      30.23F
FLAGSTAFF, AZ  SUNNY     51  14  22 NW3       30.27F

$$

REGIONAL REPORTS    NEVADA/IDAHO/WYOMING

CITY           SKY/WX    TMP DP  RH WIND       PRES   REMARKS
LAS VEGAS, NV  MOSUNNY   70  29  21 E9G17     30.17F
ELY, NY        MOSUNNY   57  26  30 SE17G25   30.15F
ELKO, NV       CLOUDY    56  28  34 S12G20    30.06F
POCATELLO, ID    N/A    N/A N/A N/A MISG      30.11F
BURLEY, ID     MOSUNNY   59  24  26 S20G26    30.04F
FORT BRIDGER,    N/A     49  23  36 SE3       30.22S
EVANSTON, WY   SUNNY     42  28  57 VRB5      30.20F
ROCK SPRINGS,  MOSUNNY   47  27  45 VRB3      30.20F
KEMMERER, WY     N/A     41  27  56 W5        30.21S

$$




USA.gov is the U.S. government's official web portal to all federal, state and local government web resources and services.